"Pseudo-MPEC" for MJC01S

Created 2016 Oct 24 2:44:23 UT using Find_Orb

Astrometry:
     MJC01S    2016 09 27.97014 02 20 09.70 +00 10 23.0           7.8        503
     MJC01S    2016 10 10.89861 02 11 03.96 -00 40 32.5           7.6        503
     MJC01S    2016 10 11.96667 02 10 10.66 -00 42 43.2           7.6        503
     MJC01S    2016 10 20.86111 02 02 31.28 -01 12 49.7           7.4        503

Station data:
(503) Cambridge (N52.214287 E0.094800)  UK.

Orbital elements:  MJC01S
   Perihelion 2018 Jan 18.975507 +/- 105 TT = 23:24:43 (JD 2458137.475507)
Epoch 2016 Oct 11.0 TT = JDT 2457672.5                        Find_Orb
M 260.689316 +/- 23
n   0.213582613 +/- 0.00822         Peri.   60.221555 +/- 27
a   2.771780183 +/- 0.0711          Node    79.041149 +/- 6
e   0.13272196 +/- 0.218            Incl.   10.745593 +/- 1.4
P   4.61                   H  3.9   G  0.15   U  9.6  
q 2.403904063 +/- 0.544    Q 3.139656303 +/- 0.683
From 4 observations 2016 Sept. 27-Oct. 20; mean residual 26".051
Residuals in arcseconds: 
160927 503 .383- 1.82+    161011 503 8.27- 52.1+    
161010 503 8.25+ 50.6-    161020 503 .403+ 3.28-    

Ephemerides (geocentric):
Date (UTC) HH   RA              Dec         delta   r     elong  mag " sig PA
---- -- -- --  ------------   ------------  ------ ------ -----  --- ---- ---
2016 10 24 00  01 59 41.968   -01 21 14.13  1.8828 2.8603 166.8  7.9   60   0
2016 10 24 01  01 59 39.713   -01 21 20.47  1.8828 2.8602 166.8  7.9   60   0
2016 10 24 02  01 59 37.459   -01 21 26.79  1.8828 2.8602 166.8  7.9   61   0
2016 10 24 03  01 59 35.204   -01 21 33.10  1.8827 2.8601 166.8  7.9   61   0
2016 10 24 04  01 59 32.950   -01 21 39.40  1.8827 2.8600 166.8  7.9   62   0
2016 10 24 05  01 59 30.695   -01 21 45.69  1.8827 2.8600 166.8  7.9   63   0
2016 10 24 06  01 59 28.440   -01 21 51.97  1.8827 2.8599 166.8  7.9   63   1
2016 10 24 07  01 59 26.185   -01 21 58.23  1.8827 2.8599 166.8  7.9   64   1
2016 10 24 08  01 59 23.930   -01 22 04.48  1.8827 2.8598 166.7  7.9   64   1
2016 10 24 09  01 59 21.675   -01 22 10.72  1.8827 2.8598 166.7  7.9   65   1
2016 10 24 10  01 59 19.420   -01 22 16.95  1.8827 2.8597 166.7  7.9   65   1
2016 10 24 11  01 59 17.164   -01 22 23.16  1.8827 2.8597 166.7  7.9   66   1
2016 10 24 12  01 59 14.909   -01 22 29.36  1.8827 2.8596 166.7  7.9   66   2
2016 10 24 13  01 59 12.653   -01 22 35.55  1.8827 2.8596 166.7  7.9   67   2
2016 10 24 14  01 59 10.398   -01 22 41.72  1.8826 2.8595 166.7  7.9   67   2
2016 10 24 15  01 59 08.142   -01 22 47.89  1.8826 2.8595 166.6  7.9   68   2
2016 10 24 16  01 59 05.886   -01 22 54.04  1.8826 2.8594 166.6  7.9   69   2
2016 10 24 17  01 59 03.631   -01 23 00.18  1.8826 2.8593 166.6  7.9   69   2
2016 10 24 18  01 59 01.375   -01 23 06.30  1.8826 2.8593 166.6  7.9   70   3
2016 10 24 19  01 58 59.119   -01 23 12.41  1.8826 2.8592 166.6  7.9   70   3
2016 10 24 20  01 58 56.863   -01 23 18.51  1.8826 2.8592 166.6  7.9   71   3
2016 10 24 21  01 58 54.607   -01 23 24.60  1.8826 2.8591 166.6  7.9   71   3
2016 10 24 22  01 58 52.351   -01 23 30.68  1.8826 2.8591 166.5  7.9   72   3
2016 10 24 23  01 58 50.095   -01 23 36.74  1.8826 2.8590 166.5  7.9   72   3
2016 10 25 00  01 58 47.839   -01 23 42.79  1.8826 2.8590 166.5  7.9   73   4
2016 10 25 01  01 58 45.583   -01 23 48.82  1.8826 2.8589 166.5  7.9   74   4
2016 10 25 02  01 58 43.326   -01 23 54.84  1.8826 2.8589 166.5  7.9   74   4
2016 10 25 03  01 58 41.070   -01 24 00.86  1.8826 2.8588 166.5  7.9   75   4
2016 10 25 04  01 58 38.814   -01 24 06.85  1.8826 2.8588 166.5  7.9   75   4
2016 10 25 05  01 58 36.558   -01 24 12.84  1.8826 2.8587 166.4  7.9   76   4
2016 10 25 06  01 58 34.302   -01 24 18.81  1.8826 2.8586 166.4  7.9   77   4
2016 10 25 07  01 58 32.045   -01 24 24.77  1.8826 2.8586 166.4  7.9   77   5
2016 10 25 08  01 58 29.789   -01 24 30.71  1.8826 2.8585 166.4  7.9   78   5
2016 10 25 09  01 58 27.533   -01 24 36.65  1.8826 2.8585 166.4  7.9   78   5
2016 10 25 10  01 58 25.277   -01 24 42.57  1.8826 2.8584 166.3  7.9   79   5
2016 10 25 11  01 58 23.021   -01 24 48.47  1.8826 2.8584 166.3  7.9   80   5
2016 10 25 12  01 58 20.764   -01 24 54.37  1.8826 2.8583 166.3  7.9   80   5
2016 10 25 13  01 58 18.508   -01 25 00.25  1.8826 2.8583 166.3  7.9   81   5
2016 10 25 14  01 58 16.252   -01 25 06.12  1.8826 2.8582 166.3  7.9   81   6
2016 10 25 15  01 58 13.996   -01 25 11.97  1.8827 2.8582 166.3  7.9   82   6
2016 10 25 16  01 58 11.740   -01 25 17.81  1.8827 2.8581 166.2  7.9   83   6
2016 10 25 17  01 58 09.484   -01 25 23.64  1.8827 2.8581 166.2  7.9   83   6
2016 10 25 18  01 58 07.228   -01 25 29.46  1.8827 2.8580 166.2  7.9   84   6
2016 10 25 19  01 58 04.972   -01 25 35.26  1.8827 2.8579 166.2  7.9   84   6
2016 10 25 20  01 58 02.716   -01 25 41.05  1.8827 2.8579 166.2  7.9   85   6
2016 10 25 21  01 58 00.461   -01 25 46.83  1.8827 2.8578 166.1  7.9   86   7
2016 10 25 22  01 57 58.205   -01 25 52.59  1.8827 2.8578 166.1  7.9   86   7
2016 10 25 23  01 57 55.949   -01 25 58.34  1.8827 2.8577 166.1  7.9   87   7
2016 10 26 00  01 57 53.694   -01 26 04.08  1.8827 2.8577 166.1  7.9   88   7
2016 10 26 01  01 57 51.438   -01 26 09.80  1.8827 2.8576 166.1  7.9   88   7
2016 10 26 02  01 57 49.183   -01 26 15.51  1.8828 2.8576 166.1  7.9   89   7
2016 10 26 03  01 57 46.927   -01 26 21.21  1.8828 2.8575 166.0  7.9   90   7
2016 10 26 04  01 57 44.672   -01 26 26.89  1.8828 2.8575 166.0  7.9   90   8
2016 10 26 05  01 57 42.417   -01 26 32.56  1.8828 2.8574 166.0  7.9   91   8
2016 10 26 06  01 57 40.162   -01 26 38.22  1.8828 2.8574 166.0  7.9   92   8
2016 10 26 07  01 57 37.907   -01 26 43.86  1.8828 2.8573 165.9  7.9   92   8
2016 10 26 08  01 57 35.652   -01 26 49.49  1.8828 2.8572 165.9  7.9   93   8
2016 10 26 09  01 57 33.397   -01 26 55.11  1.8829 2.8572 165.9  7.9   93   8
2016 10 26 10  01 57 31.143   -01 27 00.71  1.8829 2.8571 165.9  7.9   94   8
2016 10 26 11  01 57 28.888   -01 27 06.30  1.8829 2.8571 165.9  7.9   95   8